This is the latest recevied weather packets stored in our database for station/object N3FWE. If no packets are shown the sender has not sent any weather packets the latest 1 day(s).
| Time | Temp. | Humidity | Pressure | Rain* | Wind** | Luminosity | Snow |
|---|---|---|---|---|---|---|---|
| 1778036416 | 18.89° C | 56% | 1009.8 hPa | 0 mm | 0 m/s | - | - |
| 1778035816 | 19.44° C | 54% | 1009.9 hPa | 0 mm | 0 m/s | - | - |
| 1778035215 | 20° C | 53% | 1009.8 hPa | 0 mm | 0 m/s | - | - |
| 1778034615 | 20.56° C | 51% | 1009.8 hPa | 0 mm | 0 m/s | - | - |
| 1778034016 | 21.11° C | 48% | 1009.9 hPa | 0 mm | 0 m/s | - | - |
| 1778033415 | 21.67° C | 48% | 1010 hPa | 0 mm | 0.45 m/s, 233° | - | - |
| 1778032816 | 22.22° C | 44% | 1009.8 hPa | 0 mm | 0.45 m/s, 236° | - | - |
| 1778032215 | 22.78° C | 46% | 1009.7 hPa | 0 mm | 0 m/s | - | - |
| 1778031616 | 22.78° C | 41% | 1009.6 hPa | 0 mm | 0.45 m/s, 225° | - | - |
| 1778031015 | 23.33° C | 41% | 1009.5 hPa | 0 mm | 0 m/s | - | - |
| 1778030416 | 23.33° C | 40% | 1009.4 hPa | 0 mm | 0.45 m/s, 236° | - | - |
| 1778029816 | 23.89° C | 40% | 1009.2 hPa | 0 mm | 0.45 m/s, 223° | - | - |
| 1778029215 | 23.89° C | 39% | 1009.2 hPa | 0 mm | 0 m/s | - | - |
| 1778028616 | 24.44° C | 39% | 1009.1 hPa | 0 mm | 0.45 m/s, 199° | - | - |
| 1778028016 | 24.44° C | 38% | 1009 hPa | 0 mm | 1.34 m/s, 222° | - | - |
| 1778027415 | 25° C | 38% | 1008.9 hPa | 0 mm | 1.34 m/s, 200° | - | - |
| 1778026815 | 25° C | 37% | 1008.7 hPa | 0 mm | 0.89 m/s, 219° | - | - |
| 1778026215 | 25° C | 36% | 1008.6 hPa | 0 mm | 1.34 m/s, 208° | - | - |
| 1778025616 | 25.56° C | 36% | 1008.6 hPa | 0 mm | 0.89 m/s, 207° | - | - |
| 1778025015 | 25.56° C | 35% | 1008.5 hPa | 0 mm | 1.34 m/s, 184° | - | - |
| 1778024416 | 26.11° C | 35% | 1008.5 hPa | 0 mm | 1.79 m/s, 212° | - | - |
| 1778023815 | 26.11° C | 35% | 1008.4 hPa | 0 mm | 1.79 m/s, 197° | - | - |
| 1778023215 | 26.11° C | 35% | 1008.3 hPa | 0 mm | 2.68 m/s, 205° | - | - |
| 1778022615 | 26.67° C | 36% | 1008.4 hPa | 0 mm | 1.79 m/s, 209° | - | - |
| 1778022016 | 26.67° C | 37% | 1008.3 hPa | 0 mm | 1.79 m/s, 207° | - | - |
* Rain latest hour (hover to see other rain measurements)
** Current wind speed in m/s (hover to see current wind gust speed)